Showing default

AO-95, 43770

Orbit data source: Space-Track

AO-95, 43770 is a payload satellite owned by AMSAT-NA (US) in SSO that was launched on Mon, 03 Dec 2018 UTC via an FALCON 9 launch vehicle from the Air Force Western Test Range (AFWTR). Payload-class satellites include a variety of spacecraft equipped with specific instruments for various scientific and technological missions. These include communications satellites like Starlink; space stations such as the ISS; scientific satellites like the Hubble; Earth observation satellites from companies like Planet Labs, Umbra, and HawkEye 360; GPS; miniature CubeSats for education and research; and military/defense satellites.

Loading next visibility...
Identifier
43770, 2018-099N
Orbit
SSO
Country
Flag of USUS
Related business
Manufacturer
AMSAT-NA
Mission
Operational Amateur Technology
Bus & Motor
CUBESAT 1U, Unknown motor
Mass
1 kg wet, 1 kg dry
Launch date (UTC)
2018-12-03 (7 years ago)
Launch vehicle
FALCON 9
Launch site
Air Force Western Test Range (AFWTR)
Object type
Payload
Rocket body
Debris
Shape & HBR
Box, 0.1 m
Radar Cross Section
0.015 m², Small (<0.1 m²)

Expand to show TLE details & history
Last TLE update: 23 hours ago

TLE from 23 hours ago
0 AO-95
1 43770U 18099N   26034.10484618  .00013642  00000-0  57422-3 0  9994
2 43770  97.4586  95.0296 0010588  99.3573 260.8862 15.23440273392783
Epoch: 2026-02-03T02:30Z
TLE epoch observation values (Epoch: 2026-02-03T02:30:58.709Z)
Latitude
Longitude
-76.00558°
Altitude
499.727 km
Speed
7.614 km/s
True Right ascension
06h 20m 07s
True Declination
0° 00' 00"
Sunlit
Object was in full shadow at epoch
Visualization orbit readout
Latitude
Unknown
Longitude
Unknown
Altitude
Unknown
Speed
Unknown
Apparent Right ascension
Unknown
Apparent Declination
Unknown
Sunlit
N/A
Visualization observer readout
Local Sidereal Time
03:53:54
Azimuth
Unknown
Elevation
Unknown
Doppler factor
Unknown
Orbital elements
Apogee altitude
499.711 km
Perigee altitude
485.162 km
Semi-major axis
6,870.573 km
Eccentricity
0.00106
Inclination
97.4586°
RAAN
95.0296°
Arg. of periapsis
99.3573°
True anomaly
260.76643°
Mean anomaly
260.8862°
Eccentric anomaly
260.82631°
Mean motion
3.81113 °/min
Orbital period
94.46 mins
BSTAR
0.00057422
Loading maneuver chart data...
Computing Atmospheric mass density...
Loading historical data...
Loading historical data...
Loading historical data...
Loading historical data...
Loading historical data...
Loading historical data...
Loading historical data...

Documentation

Showing up to 5 results
|